Regional Weather Roundup
Issued by NWS

Home | Current Version | Previous Version | Graphics & Text | Print | Product List | Glossary On
Versions: 1 2 3 4 5 6 7 8 9 10 11 12 13 14 15 16 17 18 19 20 21 22 23 24 25 26 27 28 29 30 31 32 33 34 35 36 37 38 39 40 41 42 43 44 45 46 47 48 49 50
000
ASUS43 KMPX 011610
RWRMN
WEATHER ROUNDUP FOR MINNESOTA
NATIONAL WEATHER SERVICE TWIN CITIES/CHANHASSEN MN
1000 AM CST SUN FEB 01 2015


NOTE: "FAIR" INDICATES FEW OR NO CLOUDS BELOW 12,000 FEET WITH NO
SIGNIFICANT WEATHER AND/OR OBSTRUCTIONS TO VISIBILITY. N/A MEANS
CURRENT SKY AND/OR WEATHER CONDITIONS ARE NOT AVAILABLE.

MNZ060>063-068>070-011700-
   Twin Cities Metro

CITY           SKY/WX    TMP DP  RH WIND       PRES   REMARKS
TWIN CITIES    CLOUDY    13   2  61 NE15      30.25R WCI  -3
ST PAUL        CLOUDY    13   2  61 NE14G23   30.28R WCI  -2
CRYSTAL        CLOUDY    14   0  53 NE15G23   30.25R WCI  -1
BLAINE         CLOUDY    16   1  53 MISG      30.25S
LAKEVILLE      LGT SNOW  10   7  85 NE14      30.22R WCI  -5
EDEN PRAIRIE   CLOUDY    13   1  59 NE16G24   30.23R WCI  -3
SOUTH ST PAUL  CLOUDY    13   3  63 NE9G18    30.25R WCI   1
LAKE ELMO      CLOUDY    14   3  62 NE15G23   30.25R WCI  -1
$$
MNZ001>005-007-008-013>017-022>024-027-028-011700-
   Northwest Minnesota

CITY           SKY/WX    TMP DP  RH WIND       PRES   REMARKS
BEMIDJI        MOSUNNY  -11 -17  71 N6        30.44R WCI -24
HALLOCK        MOSUNNY  -11 -20  64 NW5       30.58S WCI -23
ROSEAU         MOSUNNY  -15 -22  70 CALM      30.53S
WARROAD        MOSUNNY  -18 -26  69 CALM      30.51S
THIEF RVR FALL MOSUNNY  -11 -15  84 N7        30.51S WCI -26
CROOKSTON      SUNNY     -9 -17  70 N9        30.57S WCI -27
FOSSTON        MOSUNNY   -9 -17  70 NE8       30.48R WCI -26
DETROIT LAKES  SUNNY     -4 -15  59 N6        30.43R WCI -16
MOORHEAD       SUNNY     -6 -11  77 N18       30.51R WCI -29
PARK RAPIDS    MOSUNNY   -5 -16  59 N10G16    30.39R WCI -23
MAHNOMEN       PTSUNNY   -8 -15  69 NE13      30.46S WCI -28
$$
MNZ006-009>011-018-025>026-011700-
   North Central Minnesota

CITY           SKY/WX    TMP DP  RH WIND       PRES   REMARKS
BAUDETTE       MOSUNNY  -16 -22  74 NW6       30.49R WCI -31
FLAG ISLAND    MOSUNNY  -20 -26  76 NW7       30.50F WCI -37
INTL FALLS     MOSUNNY  -13 -20  71 NE5       30.47S WCI -25
WASKISH        MOSUNNY   -9 -17  70 CALM      30.47S
BIG FORK       MOSUNNY   -9 -18  64 N3        30.43R
LONGVILLE      MOSUNNY   -6 -15  65 N5        30.41R WCI -17
GRAND RAPIDS   MOSUNNY   -8 -17  65 N8        30.38R WCI -23
CRANE LAKE     MOSUNNY  -17 -24  70 CALM      30.48S
ORR            MOSUNNY  -15 -22  70 CALM      30.40R
COOK           MOSUNNY  -11 -18  70 NE5       30.41F WCI -23
WALKER         FAIR      -8 -17  67 NE6       30.42R WCI -21
$$
MNZ012-019>021-037-011700-
   Northeast Minnesota

CITY           SKY/WX    TMP DP  RH WIND       PRES   REMARKS
DULUTH         MOSUNNY   -1 -13  56 N13       30.33R WCI -19
ELY            PTSUNNY  -13 -18  77 N3        30.39F
HIBBING        MOSUNNY   -7 -18  59 N9        30.39S WCI -24
EVELETH        SUNNY     -8 -17  65 N7        30.39S WCI -22
DULUTH HARBOR  PTSUNNY   10   3  72 N22       30.40S WCI  -9
TWO HARBORS    PTSUNNY    3 -15  43 N9        30.36S WCI -11
SILVER BAY     PTSUNNY    1 -17  42 N6        30.37S WCI -10
GRAND MARAIS     N/A      1 -16  44 NE6       30.45S WCI -10
G MARAIS ARPRT MOSUNNY   -9 -20  59 N8        30.30S WCI -26
$$
MNZ029>031-032-039>041-046>048-054>057-064-011700-
   West Central Minnesota

CITY           SKY/WX    TMP DP  RH WIND       PRES   REMARKS
FERGUS FALLS   MOSUNNY    0 -17  46 N8        30.46R WCI -15
WHEATON        PTSUNNY   -2 -11  65 NW20      30.45R WCI -25
MORRIS         MOSUNNY    7  -2  66 N18       30.36R WCI -12
ALEXANDRIA     MOSUNNY    3  -5  69 N14       30.33R WCI -15
ELBOW LAKE     FAIR       2  -8  63 N13       30.38R WCI -16
WADENA         CLOUDY    -2 -11  65 N10       30.37R WCI -19
GLENWOOD       MOSUNNY    3  -4  72 N16       30.31S WCI -16
APPLETON       MOSUNNY    9  -2  61 N21       30.35R WCI -11
BENSON         PTSUNNY    7  -2  66 NE15      30.33R WCI -11
ORTONVILLE     MOSUNNY    1  -8  66 N21G26    30.37R WCI -20
MADISON        MOSUNNY    9   0  66 N20G28    30.34S WCI -11
WILLMAR        FAIR      10   0  61 NE18G30   30.28S WCI  -8
$$
MNZ033>034-036-042>043-049>051-058-059-011700-
   Central Minnesota

CITY           SKY/WX    TMP DP  RH WIND       PRES   REMARKS
ST CLOUD       CLOUDY     7  -1  70 N13       30.30S WCI  -9
SAUK CENTRE    FAIR       4  -4  69 N14G20    30.32S WCI -13
PAYNESVILLE    PTSUNNY    4  -3  74 N17       30.29S WCI -15
AITKIN         MOSUNNY    5  -6  61 N7        30.35S WCI  -7
PINE RIVER     CLOUDY    -4 -11  71 N14       30.41R WCI -24
BRAINERD       MOSUNNY    2  -7  66 N10       30.36S WCI -14
STAPLES        CLOUDY     0  -8  71 N8        30.37R WCI -15
LONG PRAIRIE   FAIR       3  -6  66 N13G18    30.32S WCI -14
LITTLE FALLS   MOSUNNY    5  -6  61 N7        30.35R WCI  -7
LITCHFIELD     CLOUDY    10   1  67 NE18G26   30.26S WCI  -8
BUFFALO        CLOUDY    12   3  69 N13G21    30.27S WCI  -3
MAPLE LAKE     CLOUDY    12   5  73 N14       30.28R WCI  -3
$$
MNZ037-044-045-052-053-011700-
   East Central Minnesota

CITY           SKY/WX    TMP DP  RH WIND       PRES   REMARKS
PRINCETON      CLOUDY    10   1  67 N12       30.29S WCI  -4
MORA           PTSUNNY    7   0  72 N6        30.33F WCI  -3
CAMBRIDGE      CLOUDY    10   1  67 N10       30.28S WCI  -3
RUSH CITY      CLOUDY    12   3  67 NE10      30.30S WCI  -1
MOOSE LAKE     PTSUNNY    5  -4  66 N8        30.33S WCI  -8
HINCKLEY       FAIR       9   3  78 N8        30.32S WCI  -4
CLOQUET        PTSUNNY    0  -9  65 N9G16     30.34R WCI -16
MCGREGOR       MOSUNNY    1  -8  66 N9        30.36S WCI -14
$$
MNZ071>073-080-081-089-090-097-098-011700-
   Southwest Minnesota

CITY           SKY/WX    TMP DP  RH WIND       PRES   REMARKS
MONTEVIDEO     CLOUDY     9   1  72 NE20G25   30.32R WCI -11
GRANITE FALLS  CLOUDY    10   2  72 N17G24    30.30R WCI  -8
CANBY          PTSUNNY    5  -2  74 N20G28    30.32S WCI -15
MARSHALL       CLOUDY     9   0  66 N21G29    30.27R WCI -11
REDWOOD FALLS  LGT SNOW  11   4  73 N12G21    30.26R WCI  -3
OLIVIA         FLURRIES  10   3  72 NE18      30.25S WCI  -8
PIPESTONE      CLOUDY     7   1  78 NE20G26   30.18R HAZE    WCI -13
WINDOM         LGT SNOW  12   9  85 N24G31    30.15R WCI  -8
WORTHINGTON    CLOUDY    28   3  34 N25G33    30.14R VSB 1/2 WCI  14
JACKSON        CLOUDY    14  10  85 N25G32    30.12R FOG     WCI  -5
TRACY          LGT SNOW  10   5  80 N22       30.23R WCI -10
SLAYTON        LGT SNOW   8   4  84 N21G28    30.17R WCI -12
$$
MNZ065>067-074>077-082>085-091>093-011700-
   South Central Minnesota

CITY           SKY/WX    TMP DP  RH WIND       PRES   REMARKS
MANKATO        CLOUDY   N/A N/A N/A NE21G29   30.16S VSB 3/4
NEW ULM        LGT SNOW  12   7  79 NE16G23   30.20R WCI  -4
ST JAMES       LGT SNOW  16  10  79 N20G25    30.18R VSB 3/4 WCI  -1
FAIRMONT       CLOUDY    14  10  85 N18       30.11R VSB 1/2 WCI  -3
GLENCOE        CLOUDY    14   8  77 N12G20    30.23R WCI   0
FARIBAULT      LGT SNOW  12   9  85 N17       30.18R WCI  -5
OWATONNA       LGT SNOW  12   9  85 N22       30.14R WCI  -7
WASECA         LGT SNOW  14  10  85 NE23G29   30.16R WCI  -5
ALBERT LEA     SNOW      14  10  85 NE23      30.08R VSB 1/2 WCI  -5
$$
MNZ078>079-086>088-094>096-011700-
   Southeast Minnesota

CITY           SKY/WX    TMP DP  RH WIND       PRES   REMARKS
ROCHESTER      SNOW      12   8  84 NE24G33   30.09R VSB 1/2 WCI  -8
RED WING       LGT SNOW  12   7  79 NE9G20    30.22R WCI   0
STANTON        LGT SNOW  13   8  81 NE20G26   30.19R WCI  -5
DODGE CENTER   LGT SNOW  12   9  85 NE21      30.10R WCI  -6
WINONA         LGT SNOW  16  10  79 NE6       30.18S WCI   7
AUSTIN         LGT SNOW  14  10  85 NE20      30.06R VSB 3/4 WCI  -3
PRESTON        CLOUDY    13   9  86 NE17G25   30.07R WCI  -4
$$
ABBREVIATIONS USED IN REMARKS
   TC - TEMPERATURES IN CELSIUS
  WCI - WIND CHILL INDEX
   HX - HEAT INDEX
  VSB - VISIBILITY
$$


USA.gov is the U.S. government's official web portal to all federal, state and local government web resources and services.